Location: Baia Mare
(47.6567°N, 23.5850°E)
Time: 23:17:48
(UTC+03:00)

ISS - Pass Details

Date: 09 October 2018
Orbit: 403 x 408 km, 51.6° (Epoch: 17 October)

Event Time Altitude Azimuth Distance (km) Brightness Sun altitude
Rises 21:12:20 0° 284° (WNW) 2,337 1.4 -24.6°
Reaches altitude 10° 21:15:10 10° 257° (WSW) 1,470 -0.3 -25.1°
Enters shadow 21:16:43 14° 230° (SW) 1,260 -1.0 -25.3°
